Location: Владивосток
(43.1151°N, 131.8856°E)
Time: 00:10:27
(UTC+10:00)

EO-88 - Pass Details

Date: 06 July 2022
Orbit: 454 x 462 km, 97.3° (Epoch: 07 August)

Event Time Altitude Azimuth Distance (km) Brightness Sun altitude
Exits shadow 21:25:45 - 107° (ESE) 2,000 ? -5.4°
Reaches altitude 10° 21:27:25 10° 85° (E) 1,624 ? -5.7°
Maximum altitude 21:28:39 12° 65° (ENE) 1,531 ? -5.9°
Drops below altitude 10° 21:29:53 10° 44° (NE) 1,627 ? -6.0°
Sets 21:33:07 0° 10° (N) 2,507 ? -6.5°
